Weather in Hopen

Norway     76°35′22″N   25°10′58″E
temp.,
°C
wind,
m/s
gust,
m/s
humid.,
%
clouds,
%
prec.,
mm/h
press.,
hPa
HPBL,
m
17 august, wed
wed1723:00+6se91399100 2.6 1005184
02:00+6sw610100100 2.8 1005107
05:00+6sw5798100 0.0 100676
08:00+6ssw5595100 0.0 100544
11:00+6sse4493100 0.0 100531
14:00+6e81299100 1.6 1001138
17:00+6ese813100100 0.9 995148
20:00+6wsw101499100 0.9 994189
18 august, thu
thu1823:00+6wsw111596100 0.0 999361
02:00+6wsw101394100 0.0 1002279
05:00+6sw81394100 0.0 1003213
08:00+6sw91395100 0.0 1004228
11:00+6sw813922 0.0 1005230
14:00+6sw1015935 0.0 1007295
17:00+6wsw1217855 0.0 1009461
20:00+6wsw1218845 0.0 1012570
19 august, fri
fri1923:00+6sw1116865 0.0 1014409
02:00+6sw10158495 0.0 1015298
05:00+6sw91388100 0.1 1016215
08:00+6sw914935 0.1 1017250
11:00+6ssw8139566 0.0 1017194
14:00+6ssw71095100 0.0 1016134
17:00+6ssw5795100 0.0 101683
20:00+6s349294 0.0 101435
20 august, sat
sat2023:00+6ssw339372 0.0 101315
02:00+6sw33965 0.0 101314
05:00+6ssw4496100 0.0 101232
08:00+6s5792100 0.0 101262
11:00+6ssw8129075 0.0 1011137
14:00+6sw699499 0.0 1011112
17:00+6sw569882 0.4 101160
20:00+6sw449997 0.5 101043
21 august, sun
sun2123:00+6w2399100 0.1 101016
02:00+5ne46100100 0.2 101077
05:00+5ne6899100 0.0 1010156
08:00+5ne71091100 0.1 1012208
11:00+5ene71091100 0.1 1013252
14:00+5ene7108613 0.1 1014276
17:00+5ene710860 0.0 1015269
20:00+5ene8118787 0.0 1015308